This is the latest recevied weather packets stored in our database for station/object AI5BL. If no packets are shown the sender has not sent any weather packets the latest 10 day(s).
| Time | Temp. | Humidity | Pressure | Rain* | Wind** | Luminosity | Snow |
|---|---|---|---|---|---|---|---|
| 1788104680 | 30° C | 70% | 1021.6 hPa | 0 mm | - | 721 W/m² | - |
| 1788104376 | 30.56° C | 73% | 1021.4 hPa | 0 mm | - | 258 W/m² | - |
| 1788104072 | 30° C | 76% | 1021.6 hPa | 0 mm | - | 594 W/m² | - |
| 1788103771 | 30° C | 72% | 1021.6 hPa | 0 mm | - | 318 W/m² | - |
| 1788103466 | 29.44° C | 74% | 1021.7 hPa | 0 mm | - | 687 W/m² | - |
| 1788103160 | 30° C | 72% | 1021.7 hPa | 0 mm | - | 624 W/m² | - |
| 1788102860 | 30.56° C | 75% | 1021.6 hPa | 0 mm | - | 607 W/m² | - |
| 1788102554 | 29.44° C | 74% | 1021.5 hPa | 0 mm | - | 603 W/m² | - |
| 1788102254 | 30° C | 72% | 1021.5 hPa | 0 mm | - | 177 W/m² | - |
| 1788101948 | 30° C | 74% | 1021.6 hPa | 0 mm | - | 510 W/m² | - |
| 1788101644 | 30° C | 75% | 1021.6 hPa | 0 mm | - | 516 W/m² | - |
| 1788101344 | 28.89° C | 74% | 1021.6 hPa | 0 mm | - | 459 W/m² | - |
| 1788101041 | 28.89° C | 77% | 1021.7 hPa | 0 mm | - | 444 W/m² | - |
| 1788100736 | 29.44° C | 73% | 1021.5 hPa | 0 mm | - | 428 W/m² | - |
| 1788100436 | 28.89° C | 75% | 1021.4 hPa | 0 mm | - | 411 W/m² | - |
| 1788100135 | 29.44° C | 75% | 1021.7 hPa | 0 mm | - | 393 W/m² | - |
| 1788099830 | 28.89° C | 76% | 1021.6 hPa | 0 mm | - | 376 W/m² | - |
| 1788099525 | 28.33° C | 77% | 1021.5 hPa | 0 mm | - | 367 W/m² | - |
| 1788099220 | 28.89° C | 77% | 1021.5 hPa | 0 mm | - | 344 W/m² | - |
| 1788098915 | 28.33° C | 77% | 1021.6 hPa | 0 mm | - | 325 W/m² | - |
| 1788098610 | 27.78° C | 79% | 1021.7 hPa | 0 mm | - | 317 W/m² | - |
| 1788098305 | 27.78° C | 79% | 1021.6 hPa | 0 mm | - | 292 W/m² | - |
| 1788098000 | 27.22° C | 81% | 1021.6 hPa | 0 mm | - | 289 W/m² | - |
| 1788097696 | 27.22° C | 82% | 1021.5 hPa | 0 mm | - | 262 W/m² | - |
| 1788097396 | 27.22° C | 84% | 1021.6 hPa | 0 mm | - | 241 W/m² | - |
* Rain latest hour (hover to see other rain measurements)
** Current wind speed in m/s (hover to see current wind gust speed)